Location: *
(43.0409°N, 0.1694°E)
Time: 22:18:40
(UTC+00:00)

Lacrosse 5 rocket - Pass Details

Date: 03 October 2023
Orbit: 452 x 591 km, 57.0° (Epoch: 04 December)

Event Time Altitude Azimuth Distance (km) Brightness Sun altitude
Exits shadow 04:21:18 19° 324° (NW) 1,314 3.0 -18.5°
Maximum altitude 04:21:52 19° 335° (NNW) 1,289 3.1 -18.4°
Drops below altitude 10° 04:24:45 10° 22° (NNE) 1,740 4.3 -17.9°
Sets 04:27:23 0° 41° (NE) 2,596 5.6 -17.4°
